Nuiqsut, AK

5:49 PM AKST on January 18, 2017 (GMT -0900)
Nuiqsut

Weather History for PAQT - October, 2012

Change the Weather History Date:

Tuesday, October 16, 2012

  Actual Average (PAKU) Record (PAKU)
Temperature  
Mean Temperature 24 °F -  
Max Temperature 28 °F 19 °F 37 °F (1993)
Min Temperature 21 °F 11 °F -14 °F (1996)
Degree Days  
Heating Degree Days 40    
Moisture  
Dew Point 24 °F    
Average Humidity 97    
Maximum Humidity 100    
Minimum Humidity 91    
Precipitation  
Precipitation 0.00 in - - ()
Sea Level Pressure  
Sea Level Pressure 29.66 in    
Wind  
Wind Speed 6 mph (NW)    
Max Wind Speed 14 mph    
Max Gust Speed -    
Visibility 3 miles    
Events Fog , Snow    
Averages and records for this station are not official NWS values.
T = Trace of Precipitation, MM = Missing Value Source: NWS Daily Summary

Daily Weather History Graph

Daily Weather History Graph

Search for Another Location

Airport or City:

Trip Planner

Search our weather history database for the weather conditions in past years. The results will help you decide how hot, cold, wet, or windy it might be!

Date:

Astronomy

Oct. 16, 2012 Rise Set
Actual Time 9:25 AM AKDT 6:11 PM AKDT
Civil Twilight 8:21 AM AKDT 7:15 PM AKDT
Nautical Twilight 7:09 AM AKDT 8:26 PM AKDT
Astronomical Twilight 5:55 AM AKDT 9:40 PM AKDT
Moon 12:51 PM AKDT (10/16) 5:05 PM AKDT (10/16)
Length of Visible Light 10h 54m
Length of Day
8h 45m
Waxing Crescent, 3% of the Moon is Illuminated
Oct 16
Waxing Crescent
Oct 21
First Quarter
Oct 29
Full
Nov 6
Last Quarter
Nov 13
New

Hourly Weather History & Observations

Time (AKDT) Temp. Windchill Dew Point Humidity Pressure Visibility Wind Dir Wind Speed Gust Speed Precip Events Conditions
12:09 AM 21.2 °F 12.6 °F 19.4 °F 93% 29.58 in 1.8 mi SW 6.9 mph - 0.00 in Snow Light Snow
12:12 AM 21.2 °F 12.6 °F 19.4 °F 93% 29.58 in 1.5 mi WSW 6.9 mph - 0.00 in Snow Light Snow
12:25 AM 21.2 °F 12.6 °F 19.4 °F 93% 29.58 in 3.0 mi SW 6.9 mph - 0.00 in Snow Light Snow
12:53 AM 23.0 °F 14.7 °F 21.9 °F 96% 29.59 in - WSW 6.9 mph - 0.00 in Snow Light Snow
1:26 AM 24.8 °F 19.1 °F 23.0 °F 93% 29.59 in 2.0 mi West 4.6 mph - 0.00 in Snow Light Snow
1:36 AM 24.8 °F 20.5 °F 23.0 °F 93% 29.59 in 1.5 mi WNW 3.5 mph - 0.00 in Snow Light Snow
1:41 AM 24.8 °F 19.1 °F 24.8 °F 100% 29.59 in 2.0 mi NW 4.6 mph - 0.00 in Snow Light Snow
1:51 AM 24.8 °F 19.1 °F 24.8 °F 100% 29.59 in 1.8 mi WNW 4.6 mph - 0.00 in Snow Light Snow
1:53 AM 25.0 °F 20.7 °F 24.1 °F 96% 29.59 in 1.5 mi WNW 3.5 mph - 0.00 in Snow Light Snow
2:01 AM 24.8 °F 19.1 °F 24.8 °F 100% 29.59 in 2.5 mi NW 4.6 mph - 0.00 in Snow Light Snow
2:05 AM 26.6 °F 20.0 °F 24.8 °F 93% 29.58 in 3.0 mi NNW 5.8 mph - 0.00 in Snow Light Snow
2:30 AM 26.6 °F 21.2 °F 26.6 °F 100% 29.59 in 4.0 mi North 4.6 mph - 0.00 in Snow Light Snow
2:53 AM 27.0 °F 23.0 °F 26.1 °F 96% 29.60 in 3.0 mi NNE 3.5 mph - 0.00 in Snow Light Snow
3:53 AM 26.1 °F 21.9 °F 26.1 °F 100% 29.61 in 4.0 mi NNW 3.5 mph - 0.00 in Snow Light Snow
4:06 AM 26.6 °F 21.2 °F 26.6 °F 100% 29.60 in 4.0 mi NNW 4.6 mph - 0.00 in Snow Light Snow
4:15 AM 26.6 °F 22.6 °F 26.6 °F 100% 29.61 in 3.0 mi NNW 3.5 mph - 0.00 in Snow Light Snow
4:18 AM 26.6 °F 21.2 °F 26.6 °F 100% 29.61 in 2.5 mi NNW 4.6 mph - 0.00 in Snow Light Snow
4:29 AM 26.6 °F 21.2 °F 26.6 °F 100% 29.61 in 1.5 mi NNW 4.6 mph - 0.00 in Snow Light Snow
4:53 AM 27.0 °F 21.6 °F 26.1 °F 96% 29.61 in 1.5 mi NNW 4.6 mph - 0.00 in Snow Light Snow
5:20 AM 26.6 °F 20.0 °F 26.6 °F 100% 29.61 in 1.0 mi NNW 5.8 mph - 0.00 in Snow Light Snow
5:32 AM 28.4 °F 19.7 °F 26.6 °F 93% 29.61 in 1.5 mi North 9.2 mph - 0.00 in Snow Light Snow
5:49 AM 28.4 °F 19.7 °F 26.6 °F 93% 29.61 in 1.8 mi NNE 9.2 mph - 0.00 in Snow Light Snow
5:53 AM 28.0 °F 18.6 °F 27.0 °F 96% 29.62 in 1.2 mi North 10.4 mph - 0.00 in Snow Light Snow
6:04 AM 28.4 °F 19.7 °F 26.6 °F 93% 29.62 in 0.5 mi North 9.2 mph - 0.00 in Fog , Snow Snow
6:23 AM 28.4 °F 19.1 °F 28.4 °F 100% 29.62 in 1.0 mi North 10.4 mph - 0.00 in Snow Light Snow
6:38 AM 28.4 °F 22.2 °F 28.4 °F 100% 29.61 in 0.8 mi NNE 5.8 mph - 0.00 in Snow Light Snow
6:53 AM 28.0 °F 20.8 °F 28.0 °F 100% 29.62 in 1.8 mi NE 6.9 mph - 0.00 in Snow Light Snow
7:00 AM 28.4 °F 22.2 °F 28.4 °F 100% 29.62 in 2.5 mi NNE 5.8 mph - 0.00 in Snow Light Snow
7:12 AM 28.4 °F 21.2 °F 28.4 °F 100% 29.62 in 1.5 mi North 6.9 mph - 0.00 in Snow Light Snow
7:20 AM 28.4 °F 20.4 °F 28.4 °F 100% 29.62 in 1.2 mi North 8.1 mph - 0.00 in Snow Light Snow
7:26 AM 28.4 °F 19.1 °F 28.4 °F 100% 29.62 in 0.8 mi North 10.4 mph - 0.00 in Snow Light Snow
7:41 AM 28.4 °F 18.5 °F 28.4 °F 100% 29.62 in 1.2 mi North 11.5 mph - 0.00 in Snow Light Snow
7:53 AM 28.0 °F 18.1 °F 28.0 °F 100% 29.63 in 1.0 mi North 11.5 mph - 0.00 in Snow Light Snow
8:05 AM 28.4 °F 18.0 °F 26.6 °F 93% 29.62 in 1.5 mi North 12.7 mph - 0.00 in Snow Light Snow
8:27 AM 28.4 °F 19.7 °F 28.4 °F 100% 29.63 in 0.8 mi NNE 9.2 mph - 0.00 in Snow Light Snow
8:45 AM 24.8 °F 16.9 °F 24.8 °F 100% 29.64 in 0.5 mi ESE 6.9 mph - 0.00 in Fog , Snow Snow
8:53 AM 25.0 °F 18.1 °F 25.0 °F 100% 29.64 in 0.8 mi ESE 5.8 mph - 0.00 in Snow Light Snow
9:03 AM 24.8 °F 16.9 °F 24.8 °F 100% 29.64 in 1.5 mi East 6.9 mph - 0.00 in Snow Light Snow
9:12 AM 24.8 °F 16.9 °F 24.8 °F 100% 29.64 in 2.0 mi East 6.9 mph - 0.00 in Snow Light Snow
9:22 AM 24.8 °F 19.1 °F 24.8 °F 100% 29.65 in 3.0 mi East 4.6 mph - 0.00 in Snow Light Snow
9:44 AM 24.8 °F 19.1 °F 24.8 °F 100% 29.66 in 1.5 mi ENE 4.6 mph - 0.00 in Snow Light Snow
9:53 AM 24.1 °F 19.7 °F 24.1 °F 100% 29.66 in 1.8 mi NE 3.5 mph - 0.00 in Snow Light Snow
10:03 AM 24.8 °F 19.1 °F 24.8 °F 100% 29.66 in 2.5 mi NE 4.6 mph - 0.00 in Snow Light Snow
10:18 AM 24.8 °F 20.5 °F 24.8 °F 100% 29.67 in 3.0 mi NNE 3.5 mph - 0.00 in Snow Light Snow
10:30 AM 24.8 °F 19.1 °F 24.8 °F 100% 29.67 in 2.5 mi NE 4.6 mph - 0.00 in Snow Light Snow
10:45 AM 24.8 °F 17.9 °F 23.0 °F 93% 29.68 in 4.0 mi NE 5.8 mph - 0.00 in Snow Light Snow
10:53 AM 24.1 °F 17.0 °F 23.0 °F 96% 29.68 in 5.0 mi NE 5.8 mph - 0.00 in   Overcast
11:53 AM 23.0 °F 18.4 °F 21.9 °F 96% 29.70 in 10.0 mi NE 3.5 mph - N/A   Overcast
12:53 PM 23.0 °F - 21.9 °F 96% 29.71 in 2.0 mi Calm Calm - 0.00 in Snow Light Snow
1:27 PM 23.0 °F - 21.2 °F 93% 29.71 in 1.8 mi Calm Calm - 0.00 in Snow Light Snow
1:53 PM 23.0 °F 18.4 °F 21.0 °F 92% 29.71 in 1.5 mi WSW 3.5 mph - 0.00 in Snow Light Snow
2:04 PM 23.0 °F 18.4 °F 21.2 °F 93% 29.71 in 2.0 mi WSW 3.5 mph - 0.00 in Snow Light Snow
2:23 PM 23.0 °F 18.4 °F 21.2 °F 93% 29.71 in 4.0 mi WSW 3.5 mph - 0.00 in Snow Light Snow
2:39 PM 24.8 °F 20.5 °F 23.0 °F 93% 29.72 in 2.0 mi WSW 3.5 mph - 0.00 in Snow Light Snow
2:53 PM 24.1 °F 18.2 °F 21.9 °F 91% 29.72 in 1.8 mi WSW 4.6 mph - 0.00 in Snow Light Snow
3:17 PM 24.8 °F 16.9 °F 23.0 °F 93% 29.72 in 2.0 mi WSW 6.9 mph - 0.00 in Snow Light Snow
3:28 PM 24.8 °F 16.1 °F 23.0 °F 93% 29.72 in 4.0 mi WSW 8.1 mph - 0.00 in Snow Light Snow
3:46 PM 24.8 °F 16.1 °F 23.0 °F 93% 29.72 in 1.8 mi WSW 8.1 mph - 0.00 in Snow Light Snow
3:53 PM 25.0 °F 15.5 °F 23.0 °F 92% 29.72 in 2.5 mi WSW 9.2 mph - 0.00 in Snow Light Snow
4:01 PM 24.8 °F 15.3 °F 24.8 °F 100% 29.71 in 7.0 mi WSW 9.2 mph - 0.00 in Snow Light Snow
4:35 PM 24.8 °F 13.4 °F 24.8 °F 100% 29.70 in 2.5 mi SW 12.7 mph - 0.00 in Snow Light Snow
4:46 PM 24.8 °F 12.9 °F 24.8 °F 100% 29.70 in 1.5 mi SW 13.8 mph - 0.00 in Snow Light Snow
4:53 PM 25.0 °F 13.6 °F 24.1 °F 96% 29.70 in 2.0 mi SW 12.7 mph - 0.00 in   Overcast
5:02 PM 26.6 °F 15.7 °F 24.8 °F 93% 29.70 in 5.0 mi SW 12.7 mph - N/A   Overcast
5:16 PM 26.6 °F 16.8 °F 24.8 °F 93% 29.70 in 10.0 mi SSW 10.4 mph - N/A   Overcast
5:53 PM 26.1 °F 17.6 °F 25.0 °F 96% 29.72 in 10.0 mi SSE 8.1 mph - N/A   Overcast
6:24 PM 24.8 °F 14.0 °F 23.0 °F 93% 29.72 in 1.8 mi South 11.5 mph - 0.00 in Snow Light Snow
6:38 PM 24.8 °F 14.0 °F 23.0 °F 93% 29.72 in 3.0 mi South 11.5 mph - 0.00 in Snow Light Snow
6:53 PM 24.1 °F 13.1 °F 23.0 °F 96% 29.73 in 5.0 mi South 11.5 mph - 0.00 in Snow Light Snow
7:00 PM 24.8 °F 14.0 °F 23.0 °F 93% 29.73 in 3.0 mi South 11.5 mph - 0.00 in Snow Light Snow
7:15 PM 24.8 °F 14.0 °F 23.0 °F 93% 29.73 in 2.5 mi South 11.5 mph - 0.00 in Snow Light Snow
7:32 PM 24.8 °F 16.1 °F 23.0 °F 93% 29.74 in 5.0 mi South 8.1 mph - 0.00 in Snow Light Snow
7:53 PM 23.0 °F 14.7 °F 21.9 °F 96% 29.75 in 4.0 mi South 6.9 mph - 0.00 in Snow Light Snow
8:20 PM 21.2 °F 10.1 °F 19.4 °F 93% 29.75 in 10.0 mi South 10.4 mph - 0.00 in   Overcast
8:53 PM 21.0 °F 11.4 °F 19.9 °F 96% 29.76 in 9.0 mi SSE 8.1 mph - 0.00 in Snow Light Snow
9:43 PM 21.2 °F 13.6 °F 21.2 °F 100% 29.78 in 4.0 mi SSE 5.8 mph - 0.00 in Snow Light Snow
9:53 PM 21.9 °F 15.7 °F 21.0 °F 96% 29.78 in 6.0 mi SSE 4.6 mph - 0.00 in Snow Light Snow
10:53 PM 21.0 °F 16.2 °F 19.9 °F 96% 29.81 in 10.0 mi SE 3.5 mph - 0.00 in   Overcast
11:53 PM 21.0 °F - 19.9 °F 96% 29.82 in 10.0 mi Calm Calm - N/A   Overcast